Preview of NWS' New Version of Forecast
This preview is not operational and should not be used for support decisions.
Latest weather observations around

Bullhead City, Laughlin/Bullhead International Airport (KIFP)

Using English Units (Switch to International System of Units)
Date/ Time (MST) Wind (mph) Vis. (mi) Weather Sky Cond. Temp (°F) Rel. Humidity Wind Chill (°F) Heat Index (°F) Pressure Precip. (in)
Air Dwpt 6 hour Altimeter (inHg) Sea level (inHg) 1 hr 3 hr 6 hr
Max Min
Jun 20 01:55 SSW 7 10 Clear CLR 88 30     13%   84          
Jun 20 01:35 SSE 13 10 Clear CLR 93 30     11%   88          
Jun 20 01:15 SSE 14 10 Clear CLR 93 30     11%   88          
Jun 20 00:55   10 Clear CLR 93 28     10%   88          
Jun 20 00:35 S 7 10 Clear CLR 90 28     11%   85          
Jun 20 00:15 S 11 10 Clear CLR 93 28     10%   88          
Jun 19 23:55 S 7 10 Clear CLR 88 28     12%   84          
Jun 19 23:35 SSW 6 10 Clear CLR 90 27     10%   85          
Jun 19 23:15 SW 3 10 Clear CLR 90 28     11%   85          
Jun 19 22:55 SW 3 10 Clear CLR 90 27     10%   85 29.74        
Jun 19 22:35 SSW 6 10 Clear CLR 91 27     10%   86 29.74        
Jun 19 22:15 SW 3 10 Clear CLR 95 25     8%   89 29.74        
Jun 19 21:55 SSE 14 10 Clear CLR 97        %     29.73        
Jun 19 21:35   10 Clear CLR 99        %     29.73        
Jun 19 21:15 SSE 14 10 Clear CLR 99        %              
Jun 19 20:55 S 14 10 Clear CLR 99        %              
Jun 19 20:35   10 Clear CLR 100        %              
Jun 19 20:15   10 Clear CLR 100        %     29.71        
Jun 19 19:55   10 Clear CLR 102        %     29.7        
Jun 19 19:35 S 18 10 Clear CLR 102        %     29.7        
Jun 19 19:15 S 21 10 Clear and Windy CLR 104        %     29.69        
Jun 19 18:55 SSE 21 10 Clear and Windy CLR 104        %     29.69        
Jun 19 18:35 SSE 21 10 Clear and Windy CLR 104        %              
Jun 19 18:15 SSE 18 10 Clear CLR 106        %              
Jun 19 17:55   10 Clear CLR 106        %              
Jun 19 17:52 SSE 18 20 Clear CLR 106        %              
Jun 19 16:52 SSE 18 20 Clear CLR 106        %              
Jun 19 15:52 S 13 20 Clear CLR 106        %              
Jun 19 14:52   20 Clear CLR 106 27     6%   98 29.76        
Jun 19 13:52 SE 13 20 Clear CLR 104 27     7%   97          
Jun 19 12:52 SSE 11 20 Clear CLR 102        %              
Jun 19 11:53 SSW 13 20 Clear CLR 100 37     11%   95          
Jun 19 10:51 SSW 9 20 Clear CLR 97 37     13%   92 29.85        
Jun 19 09:54 SSW 7 20 Clear CLR 93 37     14%   89 29.86        
Jun 19 08:52 SW 6 20 Clear CLR 88 32     14%   84 29.87        
Jun 19 07:50 SW 5 10 Clear CLR 84 30     14%   81 29.87        
Jun 19 07:47 Calm 20 Clear CLR 84 30     14%   81 29.87        
Jun 19 07:35 Calm 10 Clear CLR 82 30     15%   80 29.86        
Jun 19 07:15 Calm 10 Clear CLR 82        %     29.86        
Jun 19 06:55 Calm 10 Clear CLR 81 28     15%   79 29.85        
Jun 19 06:35 Calm 9 Clear CLR 81        %     29.85        
Jun 19 06:15 Calm 10 Clear CLR 81 28     15%   79 29.84        
Jun 19 05:55 Calm 10 Clear CLR 81 28     15%   79 29.84        
Jun 19 05:35 Calm 10 Clear CLR 81 28     15%   79 29.83        
Jun 19 05:15 Calm 10 Clear CLR 81 28     15%   79 29.82        
Jun 19 04:55 SE 6 10 Clear CLR 81 27     14%   79 29.81        
Jun 19 04:35 SE 5 10 Clear CLR 81 27     14%   79 29.81        
Jun 19 04:15 Calm 10 Clear CLR 81 28     15%   79 29.81        
Jun 19 03:55 Calm 10 Clear CLR 82 27     13%   80          
Jun 19 03:35 ESE 3 10 Clear CLR 82 25     12%   80 29.8        
Jun 19 03:15 Calm 10 Clear CLR 86 25     11%   82 29.8        
Jun 19 02:55 SSE 6 10 Clear CLR 82 25     12%   80 29.8        
Jun 19 02:35 SSE 3 10 Clear CLR 84 27     12%   81 29.8        
Jun 19 02:15 SE 5 10 Clear CLR 84 27     12%   81 29.8        
Jun 19 01:55 ESE 6 10 Clear CLR 84 27     12%   81 29.79        
Jun 19 01:35 ESE 6 10 Clear CLR 84 25     11%   81 29.8        
Jun 19 01:15 E 3 10 Clear CLR 86 25     11%   82 29.8        
Jun 19 00:55 Calm 10 Clear CLR 88 25     10%   84 29.8        
Jun 19 00:35 Calm 10 Clear CLR 88 25     10%   84 29.8        
Jun 19 00:15 Calm 10 Clear CLR 90 27     10%   85 29.8        
Jun 18 23:55 Calm 10 Clear CLR 90 30     12%   85 29.8        
Jun 18 23:35 Calm 10 Clear CLR 90 28     11%   85 29.8        
Jun 18 23:15 Calm 10 Clear CLR 91 28     11%   87 29.8        
Jun 18 22:55 Calm 10 Clear CLR 90 27     10%   85 29.8        
Jun 18 22:35 SSW 3 10 Clear CLR 91 27     10%   86 29.79        
Jun 18 22:15 Calm 10 Clear CLR 93 27     9%   88 29.79        
Jun 18 21:55 Calm 10 Clear CLR 91 28     11%   87 29.78        
Jun 18 21:35 Calm 10 Clear CLR 93 28     10%   88 29.77        
Jun 18 21:15 SSW 3 10 Clear CLR 95 27     9%   89 29.77        
Jun 18 20:55 SSW 5 10 Clear CLR 95 27     9%   89 29.76        
Jun 18 20:35 SW 5 10 Clear CLR 99        %     29.75        
Jun 18 20:15 S 8 10 Clear CLR 100        %     29.74        
Jun 18 19:55 S 8 10 Clear CLR 100        %     29.74        
Jun 18 19:35 S 10 10 Clear CLR 102        %     29.74        
Jun 18 19:15 SSW 9 10 Clear CLR 102        %     29.74        
Jun 18 18:55 SW 8 10 Clear CLR 104        %     29.73        
Jun 18 18:35 SSW 8 10 Clear CLR 104        %              
Jun 18 18:15 SSW 7 10 Clear CLR 104 18     5%   96          
Jun 18 17:55 5 10 Clear CLR 104 19     5%   96          
Jun 18 17:47 SSW 7 10 Mostly Clear FEW140 104 19     5%   96          
Jun 18 16:50 SW 10 10 Mostly Clear FEW140 104 23     6%   96 29.74        
Jun 18 15:50 SW 10 10 Mostly Clear FEW140 104 27     7%   97          
Jun 18 14:59 SW 13 10 Mostly Clear FEW140 104 30     8%   97          
Jun 18 13:51 SW 5 10 Mostly Clear FEW140 104 32     8%   97 29.79        
Jun 18 12:50 SW 8 10 Clear CLR 100 37     11%   95 29.81        
Jun 18 11:56 SW 7 10 Mostly Clear FEW140 99 39     13%   94 29.83        
Jun 18 10:50 WSW 5 10 Clear CLR 97 41     15%   92 29.85        
Jun 18 09:49 S 3 10 Clear CLR 93 43     18%   89 29.85        
Jun 18 08:49 SSW 3 10 Clear CLR 90 41     18%   86 29.85        
Jun 18 07:50 Calm 20 Clear CLR 86 37     18%   83 29.84        
Jun 18 07:35 S 3 10 Clear CLR 84 37     19%   81 29.83        
Jun 18 07:15 SSW 3 10 Clear CLR 82 39     22%   80 29.83        
Jun 18 06:55 S 7 10 Clear CLR 81 39     23%   79 29.82        
Jun 18 06:35 S 5 10 Clear CLR 81 39     23%   79 29.82        
Jun 18 06:15 SSW 6 10 Clear CLR 81 39     23%   79 29.81        
Jun 18 05:55 SSW 7 10 Clear CLR 84 41     22%   82          
Jun 18 05:35 NNE 9 10 Clear CLR 88 41     19%   84          
Jun 18 05:15 NNE 10 10 Clear CLR 88 41     19%   84 29.77        
Jun 18 04:55 NNE 9 10 Clear CLR 88 41     19%   84 29.76        
Jun 18 04:35 NNE 10 10 Clear CLR 88 41     19%   84 29.75        
Jun 18 04:15 NNE 13 10 Clear CLR 90 41     18%   86 29.74        
Jun 18 03:55 NNE 14 10 Clear CLR 90 41     18%   86 29.74        
Jun 18 03:35 NNE 13 10 Clear CLR 90 41     18%   86 29.74        
Jun 18 03:15 NNE 14 10 Clear CLR 90 41     18%   86 29.73        
Jun 18 02:55 NNE 14 10 Clear CLR 90 41     18%   86 29.73        
Jun 18 02:35 NNE 11 10 Clear CLR 90 39     17%   86 29.73        
Jun 18 02:15 NNE 11 10 Clear CLR 90 39     17%   86 29.73        
Jun 18 01:55 NNE 6 10 Clear CLR 88        %              
Jun 18 01:35 Calm 10 Clear CLR 88 32     14%   84 29.74        
Jun 18 01:15 ENE 3 10 Clear CLR 88 34     15%   84 29.73        
Jun 18 00:55 N 13 10 Clear CLR 88 32     14%   84 29.73        
Jun 18 00:35 ENE 3 10 Clear CLR 90 34     14%   86 29.72        
Jun 18 00:15 Calm 10 Clear CLR 90 32     13%   86 29.72        
Jun 17 23:55 Calm 10 Clear CLR 90 32     13%   86 29.72        
Jun 17 23:40 Calm 10 Clear CLR 90 32     13%   86 29.72        
Jun 17 23:20 E 3 10 Clear CLR 91 32     12%   87 29.72        
Jun 17 23:00 Calm 10 Clear CLR 90 32     13%   86 29.72        
Jun 17 22:40 Calm 10 Clear CLR 91 32     12%   87 29.72        
Jun 17 22:15 Calm 10 Clear CLR 93 36     13%   89 29.71        
Jun 17 22:00 Calm 10 Clear CLR 93 32     11%   88 29.71        
Jun 17 21:40 Calm 10 Clear CLR 95 30     10%   89 29.7        
Jun 17 21:15 Calm 10 Clear CLR 95 30     10%   89 29.7        
Jun 17 20:55 SE 7 10 Clear CLR 97 30     10%   91 29.69        
Jun 17 20:35 SSE 8 10 Clear CLR 99 30     9%   92          
Jun 17 20:15 S 7 10 Clear CLR 99 30     9%   92          
Jun 17 20:00 SSW 6 10 Clear CLR 99        %     29.68        
Jun 17 19:40 SW 6 10 Clear CLR 100        %     29.67        
Jun 17 19:15 SW 8 10 Clear CLR 100        %     29.67        
Jun 17 18:55 SW 8 10 Clear CLR 102        %     29.66        
Jun 17 18:35 SSW 16 10 Clear CLR 102 30     8%   96 29.65        
Jun 17 18:20 SW 9 10 Clear CLR 102 30     8%   96 29.65        
Jun 17 18:00 SSW 10 10 Clear CLR 102 30     8%   96 29.65        
Jun 17 17:47 S 9 20 Partly Cloudy SCT170 104        %     29.64        
Jun 17 16:47 S 9 20 Partly Cloudy SCT080 104 30     8%   97 29.65        
Jun 17 15:47 S 9 20 Partly Cloudy SCT080 104 32     8%   97 29.67        
Jun 17 14:52 SSW 9 20 Partly Cloudy SCT080 102 32     9%   96 29.69        
Jun 17 13:49 Calm 20 Partly Cloudy SCT080 100 39     12%   95 29.71        
Jun 17 12:47 SSW 6 20 Mostly Clear FEW080 99 41     14%   94 29.73        
Jun 17 11:52 SW 8 20 Partly Cloudy SCT170 99 39     13%   94 29.75        
Jun 17 10:53 WNW 7 20 Partly Cloudy SCT170 95 43     17%   91 29.77        
Jun 17 09:52 NNW 11 10 Mostly Clear FEW140 91 48     23%   88 29.77        
Jun 17 08:49 N 11 10 Mostly Clear FEW140 90 50     26%   87          
Jun 17 07:50 NNE 15 10 Mostly Clear FEW140 86 50     29%   84 29.76        
Jun 17 07:40 NE 13 10 Clear CLR 86 50     29%   84 29.76        
Jun 17 07:20 NNE 14 10 Clear CLR 86 52     31%   84 29.75        
Jun 17 07:00 NE 14 10 Clear CLR 84 52     33%   82 29.75        
Jun 17 06:40 NNE 14 10 Clear CLR 84 52     33%   82 29.74        
Jun 17 06:20 NNE 15 10 Clear CLR 84 52     33%   82 29.73        
Jun 17 06:00 NNE 16 10 Clear CLR 84 52     33%   82          
Jun 17 05:40 NNE 18 10 Clear CLR 84 52     33%   82 29.72        
Jun 17 05:20 NNE 16 10 Clear CLR 84 52     33%   82 29.71        
Jun 17 05:00 NNE 16 10 Clear CLR 84 52     33%   82 29.7        
Jun 17 04:40 NNE 15 10 Clear CLR 84 52     33%   82 29.7        
Jun 17 04:20 NE 15 10 Clear CLR 86 50     29%   84 29.7        
Jun 17 04:00 NE 13 10 Clear CLR 86 50     29%   84 29.69        
Jun 17 03:40 NNE 15 10 Clear CLR 86 50     29%   84 29.69        
Jun 17 03:20 NE 13 10 Clear CLR 86 50     29%   84 29.69        
Jun 17 03:00 NE 11 10 Clear CLR 86 50     29%   84 29.69        
Jun 17 02:40 NE 13 10 Clear CLR 88 50     27%   85 29.69        
Jun 17 02:20 NNE 14 10 Clear CLR 88 50     27%   85 29.69        
Jun 17 02:00 NNE 18 10 Clear CLR 88 48     26%   85 29.68        
May 15 04:15 ESE 5 10 Clear CLR 68 14     12%     29.82        
Notice The following observation data may not be complete
May 15 03:35 Calm 10 Clear CLR   14      %     29.82        
May 14 23:15 Calm 10 Clear CLR 79 18     10%   77 29.79        
May 13 21:35 Calm 10 Clear CLR 81        %     29.8        
May 13 04:15 SSW 8 10 Clear CLR 70 36     28%     29.79        
May 13 01:35 SW 5 10 Clear CLR 75 34     22%   73 29.78        
May 12 23:35   10 Clear CLR 81 34     18%   79 29.76        
May 12 19:55 S 9 10 Clear CLR 84 21     10%   81 29.72        
May 12 12:56 SSE 6 20 Clear CLR 84 25     11%   81 29.77        
May 12 07:30 N 10 10 Clear CLR 72 37     29%   70 29.78        
May 12 01:35 SW 7 10 Clear CLR 77 36     22%   75 29.61        
May 12 00:55 SSE 11 10 Clear CLR 77 36     22%   75 29.6        
May 11 20:55 S 24 10 Clear and Windy CLR 88 30     13%   84 29.49        
May 11 20:35   10 Clear CLR 90 28     11%   85 29.47        
Jun 12 04:55 Calm 10 Clear CLR 68 30     24%     29.85        
Jun 11 22:55 SSW 14 10 Clear CLR 77 39     26%   76 29.71        
Jun 11 20:35 SSE 24 10 Clear and Windy CLR 88        %     29.6        
Jun 11 18:55   10 Clear CLR 93 28     10%   88 29.57        
Jun 11 11:15 S 16 10 Clear CLR 90        %     29.69        
Jun 11 10:35 S 21 10 Clear and Windy CLR 88 32     14%   84 29.69        
Jun 11 04:35 S 11 10 Clear CLR 79 39     24%   78 29.62        
Jun 11 01:35 S 15 10 Clear CLR 86 37     18%   83 29.58        
Jun 10 18:35   10 Clear CLR 97        %     29.53        
Jun 10 17:15 S 20 10 Clear and Windy CLR 99 36     11%   93 29.55        
Jun 10 16:55 S 18 10 Clear CLR 99 36     11%   93 29.56        
Jun 10 15:35 SSE 18 10 Clear CLR 99 34     10%   93          
Notice The following observation data may not be complete
Jun 10 14:55   10 Clear CLR          %              
Jun 10 05:35 SSE 10 10 Clear CLR 82 46     28%   81 29.67        
Jun 09 20:55   10 Clear CLR 99        %     29.57        
Jun 09 10:35 SSW 11 10 Clear CLR 95 28     9%   89 29.76        
Jun 09 04:55 Calm 10 Clear CLR 81 30     16%   79 29.75        
Jun 09 02:55 SSE 6 10 Clear CLR 82 27     13%   80 29.74        
Jun 08 21:35   10 Clear CLR 97 32     10%   91 29.69        
Jun 08 17:35 SSE 16 10 Clear CLR 104 30     8%   97 29.68        
Jun 07 18:35 S 17 10 Clear CLR 102 23     6%   95 29.7        
Jun 07 16:35 S 15 10 Clear CLR 104 19     5%   96          
Jun 07 15:55 S 21 10 Clear and Windy CLR 104 18     5%   96 29.75        
Jun 07 10:15 S 18 10 Clear CLR 93 32     11%   88 29.85        
Jun 06 12:55 SSW 16 10 Partly Cloudy SCT095 104 36     10%   98 29.79        
Jun 05 18:15 SSW 13 10 Clear CLR 108 34     8%   101          
Jun 05 16:15 SSW 21 10 Clear and Windy CLR 109 32     7%   102 29.66        
Jun 05 15:15   10 Clear CLR 108 36     9%   101          
Notice The following observation data may not be complete
Jun 05 12:55   10 Clear CLR          %